Location: Dennehotso
(36.8461°N, 109.8435°W)
Time: 13:25:59
(UTC+00:00)

Envisat - Pass Details

Date: 05 March 2021
Orbit: 764 x 766 km, 98.1° (Epoch: 17 April)

Event Time Altitude Azimuth Distance (km) Brightness Sun altitude
Rises 01:37:18 0° 217° (SW) 3,219 6.9 -4.9°
Reaches altitude 10° 01:41:13 10° 248° (WSW) 2,300 6.9 -5.7°
Maximum altitude 01:43:05 12° 270° (W) 2,168 7.1 -6.0°
Drops below altitude 10° 01:44:58 10° 292° (WNW) 2,306 6.7 -6.4°
Sets 01:48:56 0° 323° (NW) 3,238 6.8 -7.2°
